TimeCDT,TemperatureF,Dew PointF,Humidity,Sea Level PressureIn,VisibilityMPH,Wind Direction,Wind SpeedMPH,Gust SpeedMPH,PrecipitationIn,Events,Conditions,WindDirDegrees,DateUTC
12:53 AM,37.0,34.0,89,30.09,10.0,Calm,Calm,-,N/A,,Clear,0,2013-03-12 05:53:00
1:53 AM,36.0,34.0,93,30.10,10.0,Calm,Calm,-,N/A,,Clear,0,2013-03-12 06:53:00
2:53 AM,36.0,35.1,97,30.10,9.0,Calm,Calm,-,N/A,,Clear,0,2013-03-12 07:53:00
3:53 AM,35.1,34.0,96,30.09,9.0,Calm,Calm,-,N/A,,Clear,0,2013-03-12 08:53:00
4:53 AM,33.1,32.0,96,30.09,9.0,Calm,Calm,-,N/A,,Clear,0,2013-03-12 09:53:00
5:53 AM,34.0,33.1,96,30.11,7.0,Calm,Calm,-,N/A,,Clear,0,2013-03-12 10:53:00
6:53 AM,33.1,32.0,96,30.14,8.0,NW,3.5,-,N/A,,Clear,320,2013-03-12 11:53:00
7:53 AM,33.1,33.1,100,30.14,6.0,Calm,Calm,-,N/A,,Clear,0,2013-03-12 12:53:00
8:53 AM,41.0,37.9,89,30.19,10.0,NW,5.8,-,N/A,,Clear,310,2013-03-12 13:53:00
9:53 AM,50.0,37.0,61,30.21,10.0,North,6.9,-,N/A,,Clear,10,2013-03-12 14:53:00
10:53 AM,55.9,32.0,40,30.22,10.0,NNW,6.9,-,N/A,,Clear,340,2013-03-12 15:53:00
11:53 AM,59.0,30.0,33,30.22,10.0,North,6.9,-,N/A,,Clear,360,2013-03-12 16:53:00
12:53 PM,61.0,27.0,27,30.22,10.0,West,5.8,-,N/A,,Clear,270,2013-03-12 17:53:00
1:53 PM,64.0,26.1,24,30.19,10.0,Variable,4.6,-,N/A,,Clear,0,2013-03-12 18:53:00
2:53 PM,66.0,27.0,23,30.17,10.0,Variable,3.5,-,N/A,,Clear,0,2013-03-12 19:53:00
3:53 PM,66.9,28.0,23,30.15,10.0,NE,6.9,-,N/A,,Clear,50,2013-03-12 20:53:00
4:53 PM,68.0,28.9,23,30.14,10.0,North,9.2,-,N/A,,Clear,10,2013-03-12 21:53:00
5:53 PM,66.9,27.0,22,30.15,10.0,Calm,Calm,-,N/A,,Clear,0,2013-03-12 22:53:00
6:53 PM,64.0,28.9,27,30.17,10.0,NE,4.6,-,N/A,,Clear,40,2013-03-12 23:53:00
7:53 PM,60.1,30.0,32,30.19,10.0,Calm,Calm,-,N/A,,Clear,0,2013-03-13 00:53:00
8:53 PM,52.0,37.0,57,30.22,10.0,Calm,Calm,-,N/A,,Clear,0,2013-03-13 01:53:00
9:53 PM,52.0,35.1,53,30.24,10.0,Calm,Calm,-,N/A,,Clear,0,2013-03-13 02:53:00
10:53 PM,45.0,36.0,71,30.26,10.0,Calm,Calm,-,N/A,,Clear,0,2013-03-13 03:53:00
11:53 PM,42.1,37.0,82,30.28,10.0,Calm,Calm,-,N/A,,Clear,0,2013-03-13 04:53:00